Content
SEND FEEDBACK

Daily
Averages
Monthly
Summary
United States of America

DANBURY, NEW HAMPSHIRE


Home > North America > United States > New Hampshire
Elevation: 690 feet     Latitude: 43 29N     Longitude: 071 53W

WEATHER
 
SELECT A DAY
Number of Records: 382,311;   Date Range: 10/27/05 - 10/22/14
 
SHARE

PRINT THIS DATA

[ ← Previous Day ]
WEATHER ALMANAC - JANUARY 31, 2013
[ Next Day → ]
[ °C ]   °F
Weather ElementAverageHighLow
Temperature36.4 °F52 °F (7:15 am)25.7 °F (11:55 pm)
Dewpoint26.9 °F51.6 °F (7:15 am)9.9 °F (7:55 pm)
Humidity72 %100 % (12:35 am)39 % (5:15 pm)
Barometer29.18 in29.47 in (11:15 pm)28.84 in (8:35 am)
Wind Speed10.2 mph27.6 mph (5:15 pm)
Wind Gust46 mph (5:15 pm)
Weather ElementAverage
Visibility6.6 mi
Wind DirectionSSW (193.2 °)

Weather ElementTotal
Precipitation1.81 in
Heating Degree Days26.2 (Base 65)
Averaged from 68 records on January 31, 2013
WEATHER CONDITIONS BREAKOUT
WIND DIRECTION BREAKOUT
WEATHER BY HOUR - JANUARY 31, 2013
[ °C ]   °F
Local TimeTemperatureDewpointHumidityBarometerVisibilityWind DirectionWind SpeedGust SpeedPrecipitationEventsConditions
12:35 AM34.0 °F34.0 °F100 %29.36 in0.8 miCalmRainRain
12:55 AM34.0 °F34.0 °F100 %29.35 in0.8 miCalm0.05 inRainLight Rain
1:15 AM34.7 °F34.7 °F100 %29.30 in0.8 miCalm0.05 inRainRain
1:35 AM34.7 °F34.7 °F100 %29.29 in1.0 miEast (90°)3.5 mph0.12 inSnowSnow
1:55 AM34.7 °F34.7 °F100 %29.26 in0.8 miCalm0.19 in
2:35 AM34.7 °F34.7 °F100 %29.22 in0.8 miCalm0.10 inSnowLight Snow
2:55 AM35.2 °F35.2 °F100 %29.20 in1.2 miCalm0.17 inSnowSnow
3:15 AM35.4 °F35.4 °F100 %29.15 in1.2 miEast (80°)3.5 mph0.06 inSnowSnow
3:35 AM35.2 °F35.2 °F100 %29.13 in1.2 miCalm0.07 inRainLight Rain
3:55 AM35.6 °F35.6 °F100 %29.10 in1.0 miCalm0.10 inRainLight Rain
4:15 AM35.4 °F35.4 °F100 %29.06 in1.0 miCalm0.01 inRainLight Rain
4:35 AM35.6 °F35.6 °F100 %29.01 in0.8 miCalm0.02 inRainLight Rain
4:55 AM34.7 °F34.7 °F100 %29.00 in1.0 miCalm0.02 inRainRain
5:15 AM36.1 °F36.1 °F100 %28.96 in1.0 miCalm0.02 inRainLight Rain
5:35 AM35.8 °F35.8 °F100 %28.94 in0.8 miCalm0.08 inRainLight Rain
5:55 AM38.8 °F38.8 °F100 %28.92 in0.5 miWest (280°)4.6 mph0.19 in
6:15 AM49.6 °F49.3 °F99 %28.93 in0.8 miSW (230°)4.6 mph0.11 in
6:35 AM48.4 °F48.0 °F99 %28.92 in0.5 miCalm0.18 inRainRain
6:55 AM46.4 °F46.2 °F99 %28.91 in0.5 miSouth (190°)3.5 mph0.19 inRainLight Rain
7:15 AM52.0 °F51.6 °F99 %28.91 in7.0 miSE (130°)3.5 mph18.4 mph0.02 inRainRain
7:55 AM50.0 °F49.5 °F98 %28.86 in10.0 miCalm0.03 inRainLight Rain
8:15 AM47.1 °F46.8 °F99 %28.85 in0.8 miCalmMist
8:35 AM48.4 °F48.0 °F99 %28.84 in1.8 miSSE (160°)4.6 mphMist
9:15 AM46.6 °F39.6 °F77 %28.90 in7.0 miWNW (290°)18.4 mph32.2 mph0.01 in
9:35 AM43.9 °F38.3 °F81 %28.94 in7.0 miWNW (290°)16.1 mph25.3 mph0.01 inLight Drizzle
9:55 AM43.2 °F38.3 °F83 %28.95 in7.0 miWest (280°)17.3 mph24.2 mph0.01 inRainLight Rain
10:15 AM43.2 °F36.5 °F77 %28.97 in10.0 miWNW (290°)13.8 mph24.2 mph
10:35 AM43.5 °F33.8 °F69 %28.98 in10.0 miWest (280°)16.1 mph27.6 mph
10:55 AM42.3 °F32.0 °F67 %29.01 in10.0 miWest (280°)18.4 mph28.8 mph
11:15 AM42.4 °F31.8 °F66 %29.01 in10.0 miWest (260°)11.5 mph23.0 mph
11:35 AM40.1 °F32.4 °F74 %29.04 in4.0 miWest (270°)25.3 mph34.5 mphDrizzle
11:55 AM40.1 °F31.3 °F71 %29.06 in10.0 miWest (270°)21.9 mph32.2 mph
12:15 PM40.1 °F29.5 °F66 %29.08 in10.0 miWest (270°)16.1 mph26.5 mph
12:35 PM38.5 °F30.7 °F74 %29.09 in10.0 miWest (280°)12.7 mph21.9 mph
12:55 PM38.8 °F29.1 °F68 %29.10 in10.0 miWest (280°)11.5 mph20.7 mph
1:15 PM38.8 °F25.7 °F59 %29.10 in10.0 miWest (260°)12.7 mph26.5 mph
1:35 PM39.2 °F23.9 °F54 %29.12 in10.0 miWSW (250°)12.7 mph27.6 mph
1:55 PM38.5 °F22.1 °F52 %29.14 in10.0 miWest (260°)9.2 mph27.6 mph
2:15 PM37.8 °F20.3 °F49 %29.16 in10.0 miWSW (250°)18.4 mph29.9 mph
2:35 PM37.4 °F19.6 °F49 %29.18 in10.0 miWest (260°)13.8 mph21.9 mph
2:55 PM36.7 °F18.1 °F47 %29.19 in10.0 miWest (260°)17.3 mph35.7 mph
3:15 PM35.8 °F16.3 °F45 %29.21 in10.0 miWest (280°)16.1 mph29.9 mph
3:35 PM35.2 °F15.4 °F44 %29.23 in10.0 miWest (280°)19.6 mph28.8 mph
3:55 PM35.1 °F16.0 °F46 %29.24 in10.0 miWest (260°)18.4 mph28.8 mph
4:15 PM34.9 °F15.3 °F45 %29.25 in10.0 miWest (260°)10.4 mph26.5 mph
4:35 PM34.5 °F14.4 °F44 %29.27 in10.0 miWest (280°)20.7 mph31.1 mph
4:55 PM34.0 °F13.8 °F44 %29.27 in10.0 miWSW (250°)12.7 mph27.6 mph
5:15 PM33.8 °F11.1 °F39 %29.29 in10.0 miWSW (240°)27.6 mph46.0 mph
5:35 PM33.4 °F11.7 °F41 %29.30 in10.0 miWest (260°)19.6 mph26.5 mph
5:55 PM33.1 °F10.4 °F39 %29.32 in10.0 miWest (270°)17.3 mph29.9 mph
6:15 PM32.4 °F10.4 °F40 %29.33 in10.0 miWest (270°)18.4 mph34.5 mph
6:35 PM32.0 °F10.4 °F41 %29.34 in10.0 miWest (260°)20.7 mph33.4 mph
6:55 PM32.0 °F11.1 °F42 %29.35 in10.0 miWSW (250°)13.8 mph28.8 mph
7:15 PM32.0 °F11.1 °F42 %29.36 in10.0 miWSW (250°)11.5 mph23.0 mph
7:35 PM31.8 °F11.7 °F43 %29.38 in10.0 miWest (270°)10.4 mph29.9 mph
7:55 PM31.6 °F9.9 °F40 %29.38 in10.0 miWSW (250°)12.7 mph25.3 mph
8:15 PM31.1 °F10.2 °F42 %29.39 in10.0 miWest (260°)12.7 mph26.5 mph
8:35 PM31.1 °F10.2 °F42 %29.40 in10.0 miWest (270°)13.8 mph19.6 mph
8:55 PM30.2 °F14.0 °F51 %29.41 in10.0 miWest (270°)10.4 mph29.9 mph
9:15 PM28.8 °F18.3 °F65 %29.42 in7.0 miWNW (290°)12.7 mph19.6 mphSnowLight Snow
9:35 PM26.6 °F23.0 °F86 %29.44 in1.0 miWest (260°)6.9 mphSnowSnow
9:55 PM26.2 °F23.2 °F88 %29.44 in1.5 miWSW (240°)6.9 mphSnowLight Snow
10:15 PM27.0 °F18.7 °F71 %29.45 in10.0 miWest (260°)13.8 mph24.2 mphSnowLight Snow
10:35 PM26.6 °F17.8 °F69 %29.46 in10.0 miWest (260°)11.5 mph21.9 mph
10:55 PM26.6 °F17.4 °F68 %29.46 in10.0 miWest (260°)10.4 mph21.9 mph
11:15 PM26.6 °F16.9 °F67 %29.47 in10.0 miWest (270°)11.5 mph18.4 mph
11:35 PM26.4 °F16.7 °F67 %29.47 in10.0 miWest (260°)9.2 mph
11:55 PM25.7 °F16.0 °F67 %29.47 in10.0 miWest (270°)11.5 mph20.7 mph
Hourly data recorded from K1P1, located miles away from Danbury, New Hampshire







STORIES FROM OUR PARTNERS